This is the latest recevied weather packets stored in our database for station/object WA3NOA-2. If no packets are shown the sender has not sent any weather packets the latest 10 day(s).
| Time | Temp. | Humidity | Pressure | Rain* | Wind** | Luminosity | Snow |
|---|---|---|---|---|---|---|---|
| 1777502526 | 12.22° C | 74% | 1003.2 hPa | 0.25 mm | - | - | - |
| 1777502226 | 12.78° C | 73% | 1003.2 hPa | 0 mm | - | - | - |
| 1777501988 | 12.78° C | 71% | 1003.3 hPa | 0 mm | - | - | - |
| 1777501927 | 12.78° C | 71% | 1003.4 hPa | 0 mm | - | - | - |
| 1777501627 | 13.33° C | 70% | 1003.2 hPa | 0 mm | - | - | - |
| 1777501327 | 13.33° C | 68% | 1002.8 hPa | 0 mm | - | - | - |
| 1777501088 | 13.33° C | 67% | 1002.9 hPa | 0 mm | - | - | - |
| 1777501027 | 13.33° C | 66% | 1002.9 hPa | 0 mm | - | - | - |
| 1777500727 | 13.33° C | 65% | 1003 hPa | 0 mm | - | - | - |
| 1777500426 | 13.89° C | 64% | 1002.9 hPa | 0 mm | - | - | - |
| 1777500188 | 13.89° C | 63% | 1002.9 hPa | 0 mm | - | - | - |
| 1777500126 | 13.89° C | 62% | 1002.8 hPa | 0 mm | - | - | - |
| 1777499827 | 13.89° C | 62% | 1003 hPa | 0 mm | - | - | - |
| 1777499526 | 13.89° C | 61% | 1003.1 hPa | 0 mm | - | - | - |
| 1777499288 | 13.89° C | 61% | 1003.3 hPa | 0 mm | - | - | - |
| 1777499226 | 13.89° C | 61% | 1003.3 hPa | 0 mm | - | - | - |
| 1777498926 | 13.89° C | 61% | 1003.3 hPa | 0 mm | - | - | - |
| 1777498626 | 13.89° C | 61% | 1003.5 hPa | 0 mm | - | - | - |
| 1777498388 | 13.89° C | 60% | 1003.4 hPa | 0 mm | - | - | - |
| 1777498326 | 13.89° C | 60% | 1003.4 hPa | 0 mm | - | - | - |
| 1777498026 | 13.89° C | 60% | 1003.7 hPa | 0 mm | - | - | - |
| 1777497726 | 13.89° C | 61% | 1003.6 hPa | 0 mm | - | - | - |
| 1777497488 | 14.44° C | 62% | 1003.6 hPa | 0 mm | - | - | - |
| 1777497426 | 13.89° C | 62% | 1003.5 hPa | 0 mm | - | - | - |
| 1777497126 | 14.44° C | 63% | 1003.6 hPa | 0 mm | - | - | - |
* Rain latest hour (hover to see other rain measurements)
** Current wind speed in m/s (hover to see current wind gust speed)